Starlink 4478

operational
NORAD ID: 53529 Int'l Des: 2022-101 Owner: SPXS Country: US Constellation: starlink
LEOCIRCULAR

Über Starlink 4478

Beschreibung wird geladen...

Live-Position

3D-Globus wird geladen...

Nächste Überflüge

Höhenverlauf

Altitude vs Time

uPlot chart will show altitude changes over time

Zweizeiliger Elementsatz

1 53529U 22101C 25303.67669001 -.00000854 00000-0 -35583-4 0 9995
2 53529 53.2176 297.7796 0001449 93.0379 267.0779 15.08834897176539
Epoch: 30. Okt. 2025 • Age: 17 hours

Aktueller Status

Höhe 545.6 km
Geschwindigkeit 7.59 km/s
Subsatellitenpunkt -19.39°S, 95.11°E
Startdatum 19. Aug. 2022
Alter 3.1 years
Typ internet

Technische Details

Klassifizierung Payload
Masse 300.00 kg
Trockenmasse 290.00 kg
Gesamtmasse 300.00 kg
Länge 0.20 m
Durchmesser 2.80 m
Spannweite 9.00 m
Form Box + pan
Hersteller SPXS
Bus-Typ Starlink
Phasenstatus In Orbit
Besitzer/Staat SPXS/US

Große Konstellationen

Loading constellations...